This is the latest recevied weather packets stored in our database for station/object VK2BLR. If no packets are shown the sender has not sent any weather packets the latest 10 day(s).
| Time | Temp. | Humidity | Pressure | Rain* | Wind** | Luminosity | Snow |
|---|---|---|---|---|---|---|---|
| 1788070890 | 20° C | 41% | 1027.1 hPa | 0 mm | - | - | - |
| 1788069991 | 20° C | 41% | 1027.2 hPa | 0 mm | - | - | - |
| 1788069091 | 20.56° C | 40% | 1027.2 hPa | 0 mm | - | - | - |
| 1788068191 | 20.56° C | 40% | 1027.4 hPa | 0 mm | - | - | - |
| 1788067290 | 21.11° C | 41% | 1027.3 hPa | 0 mm | - | - | - |
| 1788066391 | 21.11° C | 41% | 1027.4 hPa | 0 mm | - | - | - |
| 1788065491 | 21.11° C | 41% | 1027.5 hPa | 0 mm | - | - | - |
| 1788064591 | 21.67° C | 41% | 1027.4 hPa | 0 mm | - | - | - |
| 1788063691 | 21.67° C | 41% | 1027.4 hPa | 0 mm | - | - | - |
| 1788062792 | 21.67° C | 40% | 1027.6 hPa | 0 mm | - | - | - |
| 1788061891 | 21.67° C | 40% | 1027.5 hPa | 0 mm | - | - | - |
| 1788060991 | 22.22° C | 41% | 1027.7 hPa | 0 mm | - | - | - |
| 1788060091 | 22.22° C | 41% | 1027.8 hPa | 0 mm | - | - | - |
| 1788059192 | 22.22° C | 41% | 1027.8 hPa | 0 mm | - | - | - |
| 1788058291 | 22.22° C | 41% | 1028 hPa | 0 mm | - | - | - |
| 1788057391 | 22.78° C | 40% | 1028.1 hPa | 0 mm | - | - | - |
| 1788056491 | 22.22° C | 41% | 1028.4 hPa | 0 mm | - | - | - |
| 1788055592 | 22.22° C | 40% | 1028.3 hPa | 0 mm | - | - | - |
| 1788054691 | 22.22° C | 38% | 1028.6 hPa | 0 mm | - | - | - |
| 1788053791 | 22.22° C | 39% | 1028.5 hPa | 0 mm | - | - | - |
| 1788052891 | 22.78° C | 38% | 1028.8 hPa | 0 mm | - | - | - |
| 1788051992 | 22.78° C | 35% | 1028.8 hPa | 0 mm | - | - | - |
| 1788051092 | 23.33° C | 34% | 1028.8 hPa | 0 mm | - | - | - |
| 1788050192 | 22.78° C | 35% | 1028.6 hPa | 0 mm | - | - | - |
| 1788049291 | 22.78° C | 35% | 1028.6 hPa | 0 mm | - | - | - |
* Rain latest hour (hover to see other rain measurements)
** Current wind speed in m/s (hover to see current wind gust speed)